Weather History for West Palm Beach, FL

Change the Weather History Date:

Saturday, February 23, 2013

  Actual Average Record
Temperature  
Mean Temperature 78 °F 69 °F  
Max Temperature 84 °F 77 °F 88 °F (1990)
Min Temperature 71 °F 60 °F 32 °F (1978)
Degree Days  
Heating Degree Days 0 1  
Month to date heating degree days 34 43  
Since 1 July heating degree days 82 200  
Cooling Degree Days 13 5  
Month to date cooling degree days 113 103  
Year to date cooling degree days 334 211  
Growing Degree Days 28 (Base 50)    
Moisture  
Dew Point 69 °F    
Average Humidity 78    
Maximum Humidity 93    
Minimum Humidity 62    
Precipitation  
Precipitation 0.03 in 0.11 in 3.37 in (1903)
Month to date precipitation 1.96 2.24  
Year to date precipitation 2.75 5.37  
Snow  
Snow 0.00 in - - ()
Month to date snowfall 0.0  
Since 1 July snowfall 0.0  
Snow Depth 0.00 in    
Sea Level Pressure  
Sea Level Pressure 29.98 in    
Wind  
Wind Speed 11 mph (SSE)    
Max Wind Speed 21 mph    
Max Gust Speed 26 mph    
Visibility 10 miles    
Events Rain    
T = Trace of Precipitation, MM = Missing Value Source: NWS Daily Summary

Daily Weather History Graph

Daily Weather History Graph

Search for Another Location

Airport:

Trip Planner

Search our weather history database for the weather conditions in past years. The results will help you decide how hot, cold, wet, or windy it might be!

Date:

Astronomy

Feb. 23, 2013 Rise Set
Actual Time 6:49 AM EST 6:18 PM EST
Civil Twilight 6:26 AM EST 6:41 PM EST
Nautical Twilight 5:59 AM EST 7:08 PM EST
Astronomical Twilight 5:32 AM EST 7:35 PM EST
Moon 4:32 PM EST (2/23) 5:03 AM EST (2/23)
Length of Visible Light 12h 15m
Length of Day
11h 28m
Waxing Gibbous, 95% of the Moon is Illuminated
Feb 23
Waxing Gibbous
Feb 25
Full
Mar 4
Last Quarter
Mar 11
New
Mar 19
First Quarter

Hourly Weather History & Observations

Time (EST) Temp. Heat Index Dew Point Humidity Pressure Visibility Wind Dir Wind Speed Gust Speed Precip Events Conditions
12:29 AM 73.4 °F - 68.0 °F 83% 30.04 in 10.0 mi SE 15.0 mph 23.0 mph N/A   Partly Cloudy
12:53 AM 73.9 °F - 68.0 °F 82% 30.03 in 10.0 mi SSE 18.4 mph 24.2 mph N/A   Partly Cloudy
1:53 AM 73.0 °F - 66.0 °F 79% 30.01 in 10.0 mi SE 8.1 mph - N/A   Partly Cloudy
2:53 AM 73.9 °F - 69.1 °F 85% 29.99 in 10.0 mi SSE 15.0 mph - N/A   Scattered Clouds
3:53 AM 73.9 °F - 68.0 °F 82% 29.99 in 10.0 mi SSE 11.5 mph 19.6 mph N/A   Mostly Cloudy
4:53 AM 73.0 °F - 68.0 °F 84% 29.99 in 10.0 mi South 9.2 mph - N/A   Scattered Clouds
5:53 AM 73.0 °F - 68.0 °F 84% 30.00 in 10.0 mi SSE 10.4 mph - N/A   Scattered Clouds
6:53 AM 73.0 °F - 68.0 °F 84% 30.00 in 10.0 mi South 8.1 mph - N/A   Scattered Clouds
7:53 AM 73.9 °F - 66.9 °F 79% 30.01 in 10.0 mi South 6.9 mph - N/A   Scattered Clouds
8:53 AM 77.0 °F - 66.0 °F 69% 30.02 in 10.0 mi SSE 17.3 mph 20.7 mph N/A   Scattered Clouds
9:53 AM 79.0 °F - 66.9 °F 66% 30.03 in 10.0 mi South 12.7 mph 21.9 mph N/A   Scattered Clouds
10:53 AM 81.0 °F 83.3 °F 66.9 °F 62% 30.02 in 10.0 mi South 15.0 mph 23.0 mph N/A   Mostly Cloudy
11:53 AM 81.0 °F 84.1 °F 69.1 °F 67% 30.00 in 10.0 mi SSE 18.4 mph - N/A   Mostly Cloudy
12:53 PM 80.1 °F 82.9 °F 69.1 °F 69% 29.98 in 10.0 mi SSE 15.0 mph - N/A   Mostly Cloudy
1:53 PM 82.0 °F 85.9 °F 70.0 °F 67% 29.95 in 10.0 mi SE 15.0 mph - N/A   Scattered Clouds
2:53 PM 82.0 °F 85.9 °F 70.0 °F 67% 29.93 in 10.0 mi SSE 19.6 mph - N/A   Scattered Clouds
3:53 PM 81.0 °F 84.1 °F 69.1 °F 67% 29.92 in 10.0 mi SSE 16.1 mph - N/A   Mostly Cloudy
4:53 PM 79.0 °F - 70.0 °F 74% 29.92 in 10.0 mi SSE 15.0 mph - N/A   Scattered Clouds
5:53 PM 77.0 °F - 70.0 °F 79% 29.91 in 10.0 mi SSE 13.8 mph 21.9 mph N/A   Mostly Cloudy
6:53 PM 75.9 °F - 72.0 °F 87% 29.94 in 10.0 mi South 9.2 mph - 0.00 in Rain Light Rain
7:53 PM 72.0 °F - 69.1 °F 91% 29.95 in 10.0 mi Calm Calm - 0.03 in Rain Light Rain
8:53 PM 73.0 °F - 70.0 °F 90% 29.96 in 10.0 mi SSW 4.6 mph - 0.00 in Rain Light Rain
9:53 PM 73.0 °F - 70.0 °F 90% 29.97 in 10.0 mi South 4.6 mph - N/A   Mostly Cloudy
10:13 PM 73.4 °F - 69.8 °F 88% 29.98 in 10.0 mi SSW 3.5 mph - N/A   Mostly Cloudy
10:53 PM 72.0 °F - 69.1 °F 91% 29.98 in 10.0 mi SSW 3.5 mph - N/A   Mostly Cloudy
11:46 PM 71.6 °F - 68.0 °F 88% 29.96 in 10.0 mi South 3.5 mph - N/A   Scattered Clouds
11:53 PM 71.1 °F - 68.0 °F 90% 29.96 in 10.0 mi South 4.6 mph - N/A   Scattered Clouds